"Pseudo-MPEC" for CEP9892

Created 2026 Jun 10 4:35:03 UT using Find_Orb

Click here for an explanation of pseudo-MPECs

 
 Astrometry: 
     CEP9892*1C2026 06 05.23077015 21 09.443+35 23 17.88   ~656K 21.31GVNEOCPG96
     CEP9892 1C2026 06 05.23594715 21 10.166+35 22 38.75   ~656K 21.08GVNEOCPG96
     CEP9892 1C2026 06 05.24111815 21 10.915+35 21 59.18   ~656K 21.01GVNEOCPG96
     CEP9892 1C2026 06 05.24634515 21 11.632+35 21 19.01   ~656K 21.59GVNEOCPG96
     CEP9892 1C2026 06 05.32994515 21 23.548+35 10 42.85   ~658Z 21.08GVNEOCPI52
     CEP9892 1C2026 06 05.33304115 21 24.001+35 10 19.49   ~658Z 21.17GVNEOCPI52
     CEP9892 1C2026 06 05.33613415 21 24.419+35 09 55.12   ~658Z 21.19GVNEOCPI52
     CEP9892 1C2026 06 05.33923215 21 24.880+35 09 31.28   ~658Z 20.61GVNEOCPI52
     CEP9892 7B2026 06 05.88914315 23 01.066+33 59 20.22   ~65Lo 21.1 GXNEOCPZ84
     CEP9892 7B2026 06 05.89036615 23 01.227+33 59 10.70   ~65Lo 20.3 GXNEOCPZ84
     CEP9892 7B2026 06 05.89173715 23 01.410+33 59 00.95   ~65Lo 20.5 GXNEOCPZ84
     CEP9892 KC2026 06 06.11490015 23 39.01 +33 30 04.6    ~663Z 21.3 GVNEOCPH21
     CEP9892 KC2026 06 06.12049615 23 39.80 +33 29 21.1    ~663Z 21.1 GVNEOCPH21
     CEP9892 KC2026 06 06.12609015 23 40.62 +33 28 37.8    ~663Z 21.2 GVNEOCPH21
     CEP9892 0B2026 06 06.84753115 25 40.343+31 54 47.26   ~676o       WNEOCPM21
     CEP9892 0B2026 06 06.93331615 25 51.999+31 43 21.50   ~676o 21.0 GWNEOCPM21
     CEP9892 0B2026 06 06.97442415 25 58.661+31 36 42.12   ~67LZ 20.5 GWNEOCP204
     CEP9892 0B2026 06 07.00374715 26 02.939+31 32 44.31   ~67LZ       WNEOCP204
     CEP9892 1C2026 06 07.20931715 26 39.696+31 05 28.28   ~675K 20.41GVNEOCPI52
     CEP9892 1C2026 06 07.21083515 26 39.901+31 05 15.50   ~675K 21.12GVNEOCPI52
     CEP9892 1C2026 06 07.21236015 26 40.117+31 05 03.08   ~675K 21.11GVNEOCPI52
     CEP9892 1C2026 06 07.21391515 26 40.315+31 04 50.34   ~675K 20.67GVNEOCPI52
     CEP9892 KB2026 06 07.83462 15 28 22.00 +29 40 13.7    ~67Ko 20.8 GXNEOCPM45
     CEP9892 KB2026 06 07.84497 15 28 23.45 +29 38 48.0    ~67Ko 20.7 GXNEOCPM45
     CEP9892 KB2026 06 07.94047315 28 38.49 +29 25 42.3    ~67N5 20.5 GXNEOCPI93
     CEP9892 KB2026 06 07.94489315 28 39.10 +29 25 05.4    ~67N5 20.6 GXNEOCPI93
     CEP9892 KB2026 06 07.94930915 28 39.75 +29 24 29.5    ~67N5 20.6 GXNEOCPI93
     CEP9892  C2026 06 08.32446215 29 38.855+28 32 42.73   ~688Z 20.6 GWNEOCPH01
     CEP9892  C2026 06 08.32834715 29 39.398+28 32 09.92   ~688Z 20.6 GWNEOCPH01
     CEP9892  C2026 06 08.33675115 29 40.582+28 30 59.04   ~688Z 20.4 GWNEOCPH01
     CEP9892  C2026 06 08.34592915 29 41.898+28 29 41.28   ~688Z 20.9 GWNEOCPH01
     CEP9892 0C2026 06 09.90089615 33 55.787+24 49 01.06   ~69MK 20.3 GXNEOCPR59
     CEP9892 KB2026 06 09.90775 15 33 55.11 +24 47 51.2    ~69No 20.6 GXNEOCPL04
     CEP9892 0C2026 06 09.90829615 33 56.776+24 47 56.30   ~69MK 20.5 GXNEOCPR59
     CEP9892 0C2026 06 09.91642515 33 57.881+24 46 46.39   ~69MK 20.2 GXNEOCPR59
     CEP9892 KB2026 06 09.95025 15 34 01.04 +24 41 41.1    ~69No 20.4 GXNEOCPL04
     CEP9892 0C2026 06 09.96290715 34 04.258+24 39 48.46   ~6A05 20.5 GWNEOCPJ95
     CEP9892 0C2026 06 09.97101815 34 05.402+24 38 37.64   ~6A05 20.5 GWNEOCPJ95
     CEP9892 0C2026 06 09.97976815 34 06.653+24 37 22.30   ~6A05 20.9 GWNEOCPJ95
     CEP9892 0C2026 06 09.98790915 34 07.807+24 36 10.94   ~6A05 20.6 GWNEOCPJ95

Station data:
(204) Schiaparelli Observatory  (N45.868292 E8.769720)  Italy.  Observer L.
   Buzzi. 0.84-m f/3.5 reflector + CCD.
(G96) Mt. Lemmon Survey  (N32.442729 W110.788720)
   US/Arizona.  Observer E. J. Christensen. Measurers T. Beuden, V. F.
   Carvajal, D. Fay, J. B. Fazekas, D. C. Fuls, A. R. Gibbs, A. D. Grauer, H.
   Gröller, J. K. Hogan, R. A. Kowalski, S. M. Larson, G. J. Leonard, D.
   Rankin, R. L. Seaman, F. C. Shelly, K. W. Wierzchoś. 1.5-m reflector + 10K
   CCD.
(H01) Magdalena Ridge Observatory, Socorro  (N33.984833 W107.189333)  US/New
   Mexico.  Observers W. H. Ryan, E. V. Ryan. Measurer W. H. Ryan. 2.4-m
   f/8.9 reflector + CCD.
(H21) Astronomical Research Observatory, Westfield  (N39.483054 W87.968270)
   US/Illinois.  Observer R. Holmes. Measurers S. Foglia, L. Buzzi, T.
   Linder, R. Holmes. 0.40-m f/5.32 astrograph + CCD.
(I52) Steward Observatory, Mt. Lemmon Station  (N32.442570 W110.788920)
   US/Arizona. Measurers T. Beuden, V. F. Carvajal, D. Fay, J. B. Fazekas, D.
   C. Fuls, A. R. Gibbs, A. D. Grauer, H. Gröller, J. K. Hogan, R. A.
   Kowalski, S. M. Larson, G. J. Leonard, D. Rankin, R. L. Seaman, F. C.
   Shelly, K. W. Wierzchoś. 1.0-m prime focus + CCD.
(I93) St Pardon de Conques  (N44.558670 W0.202960)  France.  Observers F.
   Losse, W. D'Anna. Measurer F. Losse. 0.40-m f/3.7 reflector + CCD.
(J95) Great Shefford  (N51.474969 W1.447003)  UK/England.  Observer P.
   Birtwhistle. 0.41-m f/6.3 Schmidt-Cassegrain + CCD.
(L04) ROASTERR-1 Observatory, Cluj-Napoca  (N46.820952 E23.596400)  Romania.
   Observer L. Hudin. 0.1-m f/9 refractor + CCD.
(M21) Schiaparelli Southern Observatory, Hakos  (S23.236549 E16.361440)
   Namibia.  Observers A. Aletti, F. Bellini, L. Buzzi, G. Galli. Measurer L.
   Buzzi. 0.36-m f/8.4 reflector + CCD.
(M45) Starhopper Observatory, Sfantu Gheorghe  (N45.865494 E25.768890)
   Romania.  Observer F. Ursache. 0.41-m f/7.5 reflector + CMO.
(R59) Camarasa Observatory, Astrocamp Nerpio  (N38.165429 W2.326580)  Spain.
(Z84) Calar Alto-Schmidt  (N37.224006 W2.548160)  Spain.  Observer F. Ocaña.
   Measurers F. Ocaña, M. Micheli, R. Kresken. 0.8-m f/3 Schmidt + CCD.

Orbital elements:  CEP9892
   Perihelion 2026 May 7.509274 +/- 0.0503 TT = 12:13:21.3 (JD 2461168.009274)
Epoch 2026 Jun  9.0 TT = JDT 2461200.5   Earth MOID: 0.1176   Ma: 0.0498
M  15.870600124 +/- 0.08            (J2000 ecliptic)             AutoNEOCP
n   0.488465547 +/- 0.00198         Peri.  126.321555 +/- 0.044
a   1.596786152 +/- 0.00432         Node    94.489082 +/- 0.013
e   0.34258215 +/- 0.00163          Incl.   14.135170 +/- 0.046
P   2.018/736.988d         H 23.32  G  0.15   U  8.6
q 1.049755719 +/- 0.000243    Q 2.143816586 +/- 0.0084
From 40 observations 2026 June 5-9; mean residual 0".29
Residuals in arcseconds: 
260605 G96  .00   .42+    260606 M21  .05-  .20+    260608 H01  .01-  .00     
260605 G96  .09-  .31+    260606 M21  .19-  .37+    260608 H01  .06-  .08+    
260605 G96  .16+  .24-    260606 204  .23-  .26+    260608 H01  .08+  .09-    
260605 G96  .07-  .94-    260607 204  .04-  .24-    260609 R59  .25-  .35+    
260605 I52  .27+  .19-    260607 I52  .08+  .53+    260609 L04  .20-  .50-    
260605 I52  .32+  .22+    260607 I52  .02+  .04-    260609 R59  .45-  .47-    
260605 I52  .06-  .38-    260607 I52  .09+  .20-    260609 R59  .40-  .08-    
260605 I52  .07+  .40-    260607 I52  .12-  .42-    260609 L04  .43-  .03+    
260605 Z84  .04+  .25+    260607 M45  .41+  .30+    260609 J95  .12-  .12-    
260605 Z84  .13-  .11+    260607 M45  .23+  .41-    260609 J95  .06-  .35-    
260605 Z84  .29-  .88+    260607 I93  .18-  .26-    260609 J95  .21+  .52+    
260606 H21  .07+  .17+    260607 I93  .32-  .64-    260609 J95  .30+  .12+    
260606 H21  .10-  .09-    260607 I93  .06+  .02-    
260606 H21  .14+  .13-    260608 H01  .04+  .03+    

Ephemerides (geocentric):
Date (UTC) HH   RA             Dec           delta  r     elong  mag " sig PA
---- --------  ------------   ------------  ------ ------ -----  --- --------
2026 06 10 05  15 34 43.857   +24 04 43.57  .13101 1.0996 127.3 20.9 .112  16
2026 06 10 06  15 34 50.479   +23 58 40.00  .13098 1.0997 127.4 20.9 .114  16
2026 06 10 07  15 34 57.098   +23 52 36.14  .13096 1.0998 127.5 20.9 .115  15
2026 06 10 08  15 35 03.714   +23 46 31.98  .13093 1.0999 127.6 20.9 .117  15
2026 06 10 09  15 35 10.327   +23 40 27.53  .13090 1.1001 127.7 20.9 .118  15
2026 06 10 10  15 35 16.937   +23 34 22.78  .13087 1.1002 127.7 20.9 .119  15
2026 06 10 11  15 35 23.544   +23 28 17.75  .13084 1.1003 127.8 20.9 .121  15
2026 06 10 12  15 35 30.148   +23 22 12.43  .13082 1.1004 127.9 20.9 .122  14
2026 06 10 13  15 35 36.748   +23 16 06.83  .13079 1.1005 128.0 20.9 .123  14
2026 06 10 14  15 35 43.346   +23 10 00.94  .13077 1.1007 128.1 20.9 .125  14
2026 06 10 15  15 35 49.941   +23 03 54.78  .13074 1.1008 128.1 20.9 .126  14
2026 06 10 16  15 35 56.533   +22 57 48.34  .13072 1.1009 128.2 20.9 .128  14
2026 06 10 17  15 36 03.122   +22 51 41.63  .13069 1.1010 128.3 20.9 .129  14
2026 06 10 18  15 36 09.707   +22 45 34.65  .13067 1.1011 128.4 20.9 .130  13
2026 06 10 19  15 36 16.290   +22 39 27.40  .13064 1.1012 128.4 20.9 .132  13
2026 06 10 20  15 36 22.870   +22 33 19.88  .13062 1.1014 128.5 20.9 .133  13
2026 06 10 21  15 36 29.447   +22 27 12.10  .13060 1.1015 128.6 20.9 .134  13
2026 06 10 22  15 36 36.021   +22 21 04.05  .13058 1.1016 128.7 20.9 .136  13
2026 06 10 23  15 36 42.592   +22 14 55.75  .13055 1.1017 128.8 20.9 .137  13
2026 06 11 00  15 36 49.161   +22 08 47.20  .13053 1.1018 128.8 20.9 .138  13
2026 06 11 01  15 36 55.726   +22 02 38.39  .13051 1.1020 128.9 20.8 .140  12
2026 06 11 02  15 37 02.288   +21 56 29.33  .13049 1.1021 129.0 20.8 .141  12
2026 06 11 03  15 37 08.848   +21 50 20.02  .13047 1.1022 129.1 20.8 .142  12
2026 06 11 04  15 37 15.404   +21 44 10.47  .13045 1.1023 129.2 20.8 .143  12
2026 06 11 05  15 37 21.958   +21 38 00.67  .13043 1.1024 129.2 20.8 .145  12
2026 06 11 06  15 37 28.509   +21 31 50.64  .13042 1.1026 129.3 20.8 .146  12
2026 06 11 07  15 37 35.057   +21 25 40.36  .13040 1.1027 129.4 20.8 .147  12
2026 06 11 08  15 37 41.602   +21 19 29.85  .13038 1.1028 129.5 20.8 .148  12
2026 06 11 09  15 37 48.144   +21 13 19.11  .13036 1.1029 129.6 20.8 .150  12
2026 06 11 10  15 37 54.683   +21 07 08.15  .13035 1.1031 129.6 20.8 .151  12
2026 06 11 11  15 38 01.220   +21 00 56.95  .13033 1.1032 129.7 20.8 .152  12
2026 06 11 12  15 38 07.753   +20 54 45.53  .13032 1.1033 129.8 20.8 .153  11
2026 06 11 13  15 38 14.284   +20 48 33.89  .13030 1.1034 129.9 20.8 .155  11
2026 06 11 14  15 38 20.812   +20 42 22.03  .13029 1.1035 130.0 20.8 .156  11
2026 06 11 15  15 38 27.337   +20 36 09.96  .13027 1.1037 130.0 20.8 .157  11
2026 06 11 16  15 38 33.859   +20 29 57.67  .13026 1.1038 130.1 20.8 .158  11
2026 06 11 17  15 38 40.379   +20 23 45.17  .13025 1.1039 130.2 20.8 .159  11
2026 06 11 18  15 38 46.896   +20 17 32.47  .13023 1.1040 130.3 20.8 .160  11
2026 06 11 19  15 38 53.410   +20 11 19.56  .13022 1.1041 130.3 20.8 .162  11
2026 06 11 20  15 38 59.921   +20 05 06.45  .13021 1.1043 130.4 20.8 .163  11
2026 06 11 21  15 39 06.429   +19 58 53.14  .13020 1.1044 130.5 20.8 .164  11
2026 06 11 22  15 39 12.935   +19 52 39.63  .13019 1.1045 130.6 20.8 .165  11
2026 06 11 23  15 39 19.438   +19 46 25.93  .13018 1.1046 130.7 20.8 .166  11
2026 06 12 00  15 39 25.938   +19 40 12.05  .13017 1.1048 130.7 20.8 .167  11
2026 06 12 01  15 39 32.436   +19 33 57.97  .13016 1.1049 130.8 20.8 .168  11
2026 06 12 02  15 39 38.930   +19 27 43.71  .13015 1.1050 130.9 20.8 .169  11
2026 06 12 03  15 39 45.422   +19 21 29.26  .13014 1.1051 131.0 20.8 .170  11
2026 06 12 04  15 39 51.912   +19 15 14.64  .13013 1.1053 131.1 20.8 .171  11